Weather History for KHJO - December, 2011

Change the Weather History Date:

Tuesday, December 6, 2011

  Actual Average Record
Temperature  
Mean Temperature 41 °F 46 °F  
Max Temperature 60 °F 56 °F 70 °F (2014)
Min Temperature 22 °F 35 °F 21 °F (2013)
Degree Days  
Heating Degree Days 24    
Month to date heating degree days 136  
Since 1 July heating degree days 642  
Cooling Degree Days 0    
Month to date cooling degree days 0  
Year to date cooling degree days 1664  
Moisture  
Dew Point 24 °F    
Average Humidity 58    
Maximum Humidity 96    
Minimum Humidity 19    
Precipitation  
Precipitation 0.00 in 0.02 in 0.28 in (2007)
Month to date precipitation 0.00 0.13  
Year to date precipitation 7.41 8.60  
Since 1 July precipitation 1.23 1.84  
Snow  
Snow 0.00 in - - ()
Month to date snowfall 0.0  
Since 1 July snowfall 0.0  
Snow Depth 0.00 in    
Sea Level Pressure  
Sea Level Pressure 30.38 in    
Wind  
Wind Speed 1 mph (SW)    
Max Wind Speed 7 mph    
Max Gust Speed -    
Visibility 6 miles    
Events      
T = Trace of Precipitation, MM = Missing Value Source: NWS Daily Summary

Daily Weather History Graph

Daily Weather History Graph

Search for Another Location

Airport or City:

Trip Planner

Search our weather history database for the weather conditions in past years. The results will help you decide how hot, cold, wet, or windy it might be!

Date:

Astronomy

Dec. 06, 2011 Rise Set
Actual Time 6:55 AM PST 4:43 PM PST
Civil Twilight 6:27 AM PST 5:11 PM PST
Nautical Twilight 5:55 AM PST 5:43 PM PST
Astronomical Twilight 5:24 AM PST 6:14 PM PST
Moon 2:10 PM PST (12/6) 3:22 AM PST (12/6)
Length of Visible Light 10h 44m
Length of Day
9h 47m
Waxing Gibbous, 87% of the Moon is Illuminated
Dec 6
Waxing Gibbous
Dec 10
Full
Dec 17
Last Quarter
Dec 24
New
Dec 31
First Quarter

Hourly Weather History & Observations

Time (PST) Temp. Windchill Dew Point Humidity Pressure Visibility Wind Dir Wind Speed Gust Speed Precip Events Conditions
12:53 AM 30.0 °F - 23.0 °F 75% 30.36 in 6.0 mi Calm Calm - N/A   Haze
1:53 AM 30.0 °F 26.5 °F 24.1 °F 79% 30.36 in 6.0 mi North 3.5 mph - N/A   Haze
2:53 AM 28.9 °F - 23.0 °F 78% 30.37 in 5.0 mi Calm Calm - N/A   Haze
3:53 AM 26.1 °F - 21.0 °F 81% 30.37 in 5.0 mi Calm Calm - N/A   Haze
4:53 AM 23.0 °F - 21.0 °F 92% 30.38 in 4.0 mi Calm Calm - N/A   Clear
5:53 AM 23.0 °F - 18.0 °F 81% 30.39 in 4.0 mi Calm Calm - N/A   Haze
6:53 AM 24.1 °F - 21.0 °F 88% 30.40 in 4.0 mi Calm Calm - N/A   Clear
7:09 AM 24.8 °F - 21.2 °F 86% 30.39 in 2.5 mi Calm Calm - N/A   Clear
7:49 AM 28.4 °F - 24.8 °F 86% 30.40 in 3.0 mi Calm Calm - N/A   Clear
7:53 AM 28.9 °F - 25.0 °F 85% 30.41 in 3.0 mi Calm Calm - N/A   Clear
8:53 AM 36.0 °F - 28.9 °F 76% 30.44 in 4.0 mi Calm Calm - N/A   Haze
9:53 AM 45.0 °F - 30.0 °F 56% 30.45 in 4.0 mi Calm Calm - N/A   Haze
10:53 AM 50.0 °F - 30.0 °F 46% 30.43 in 5.0 mi SSE 4.6 mph - N/A   Haze
11:53 AM 55.9 °F - 26.1 °F 32% 30.40 in 6.0 mi Variable 3.5 mph - N/A   Haze
12:53 PM 57.0 °F - 23.0 °F 27% 30.38 in 7.0 mi South 3.5 mph - N/A   Clear
1:53 PM 59.0 °F - 19.9 °F 22% 30.35 in 8.0 mi SW 5.8 mph - N/A   Clear
2:53 PM 60.1 °F - 18.0 °F 20% 30.34 in 8.0 mi Calm Calm - N/A   Clear
3:53 PM 57.9 °F - 19.9 °F 23% 30.34 in 8.0 mi WNW 3.5 mph - N/A   Clear
4:53 PM 53.1 °F - 24.1 °F 32% 30.35 in 7.0 mi Calm Calm - N/A   Clear
5:53 PM 42.1 °F - 24.1 °F 49% 30.36 in 8.0 mi Calm Calm - N/A   Clear
6:53 PM 39.0 °F - 24.1 °F 55% 30.36 in 7.0 mi Calm Calm - N/A   Clear
7:53 PM 37.9 °F - 24.1 °F 57% 30.37 in 6.0 mi Calm Calm - N/A   Haze
8:53 PM 37.9 °F - 27.0 °F 65% 30.38 in 7.0 mi Calm Calm - N/A   Clear
9:53 PM 34.0 °F - 25.0 °F 70% 30.39 in 7.0 mi Calm Calm - N/A   Clear
10:53 PM 30.9 °F - 25.0 °F 79% 30.39 in 7.0 mi Calm Calm - N/A   Clear
11:53 PM 30.0 °F - 25.0 °F 82% 30.38 in 7.0 mi Calm Calm - N/A   Clear